| time (UTC) | temp F | wind direction | speed knots | gust knots | rain 1hr in | rain 24hr in | rain mn in | humidity % | barometer mb |
| 20260508130047 | 56 | 0 | 0.9 | 1.7 | 0.00 | 0.00 | 0.00 | 75 | 1018.1 |
| 20260508124548 | 52 | 0 | 0.0 | 0.0 | 0.00 | 0.00 | 0.00 | 93 | 1017.8 |
| 20260508123047 | 49 | 0 | 0.0 | 1.7 | 0.00 | 0.00 | 0.00 | 96 | 1017.8 |
| 20260508121548 | 49 | 0 | 0.0 | 0.0 | 0.00 | 0.00 | 0.00 | 96 | 1017.7 |
| 20260508120053 | 48 | 0 | 0.0 | 0.0 | 0.00 | 0.00 | 0.00 | 96 | 1017.6 |
| 20260508114541 | 47 | 0 | 0.0 | 0.0 | 0.00 | 0.00 | 0.00 | 96 | 1017.3 |
| 20260508113121 | 47 | 0 | 0.0 | 0.0 | 0.00 | 0.00 | 0.00 | 96 | 1017.0 |
| 20260508111550 | 46 | 0 | 0.0 | 0.0 | 0.00 | 0.00 | 0.00 | 95 | 1016.8 |
| 20260508110049 | 46 | 0 | 0.0 | 0.0 | 0.00 | 0.00 | 0.00 | 95 | 1016.7 |
| 20260508104553 | 46 | 0 | 0.0 | 0.0 | 0.00 | 0.00 | 0.00 | 95 | 1016.3 |
| 20260508103057 | 46 | 0 | 0.0 | 0.0 | 0.00 | 0.00 | 0.00 | 95 | 1016.0 |
| 20260508101551 | 46 | 0 | 0.0 | 0.0 | 0.00 | 0.00 | 0.00 | 95 | 1015.8 |
| 20260508100047 | 47 | 0 | 0.0 | 0.0 | 0.00 | 0.00 | 0.00 | 95 | 1015.7 |
| 20260508094549 | 47 | 0 | 0.0 | 0.0 | 0.00 | 0.00 | 0.00 | 95 | 1015.5 |
| 20260508093046 | 48 | 0 | 0.0 | 0.0 | 0.00 | 0.00 | 0.00 | 95 | 1015.5 |
| 20260508091546 | 48 | 0 | 0.0 | 0.0 | 0.00 | 0.00 | 0.00 | 95 | 1015.3 |
| 20260508090051 | 49 | 0 | 0.0 | 0.0 | 0.00 | 0.00 | 0.00 | 94 | 1015.3 |
| 20260508084547 | 49 | 0 | 0.0 | 0.0 | 0.00 | 0.00 | 0.00 | 94 | 1015.1 |
| 20260508083048 | 50 | 0 | 0.0 | 0.0 | 0.00 | 0.00 | 0.00 | 94 | 1015.2 |
| 20260508081548 | 50 | 0 | 0.0 | 0.9 | 0.00 | 0.00 | 0.00 | 94 | 1015.1 |
| 20260508080049 | 51 | 0 | 0.0 | 0.0 | 0.00 | 0.00 | 0.00 | 94 | 1014.9 |
| 20260508074544 | 51 | 0 | 0.0 | 0.9 | 0.00 | 0.00 | 0.00 | 95 | 1014.8 |
| 20260508073048 | 51 | 0 | 0.0 | 0.0 | 0.00 | 0.00 | 0.00 | 95 | 1014.7 |
| 20260508071542 | 51 | 0 | 0.0 | 0.0 | 0.00 | 0.00 | 0.00 | 95 | 1014.7 |
| 20260508070041 | 51 | 0 | 0.0 | 0.0 | 0.00 | 0.00 | 0.00 | 94 | 1014.6 |
| 20260508064603 | 51 | 0 | 0.0 | 0.0 | 0.00 | 0.00 | 0.00 | 94 | 1014.5 |
| 20260508063048 | 51 | 0 | 0.0 | 0.0 | 0.00 | 0.00 | 0.00 | 94 | 1014.5 |
| 20260508061550 | 52 | 0 | 0.0 | 0.0 | 0.00 | 0.00 | 0.00 | 94 | 1014.5 |
| 20260508060049 | 52 | 0 | 0.0 | 0.0 | 0.00 | 0.00 | 0.00 | 94 | 1014.6 |
| 20260508054612 | 52 | 0 | 0.0 | 0.0 | 0.00 | 0.00 | 0.00 | 94 | 1014.5 |
| 20260508053047 | 52 | 0 | 0.0 | 0.0 | 0.00 | 0.00 | 0.00 | 94 | 1014.4 |
| 20260508051549 | 52 | 0 | 0.0 | 0.0 | 0.00 | 0.00 | 0.00 | 94 | 1014.4 |
| 20260508050050 | 52 | 0 | 0.0 | 0.0 | 0.00 | 0.00 | 0.00 | 94 | 1014.3 |
| 20260508044547 | 53 | 0 | 0.0 | 0.0 | 0.00 | 0.00 | 0.00 | 94 | 1014.2 |
| 20260508043054 | 53 | 0 | 0.0 | 0.0 | 0.00 | 0.00 | 0.00 | 94 | 1014.0 |
| 20260508041547 | 53 | 0 | 0.0 | 0.0 | 0.00 | 0.00 | 0.00 | 93 | 1014.1 |
| 20260508040057 | 54 | 0 | 0.0 | 0.0 | 0.00 | 0.00 | 0.00 | 93 | 1013.8 |
| 20260508034549 | 54 | 0 | 0.0 | 0.0 | 0.00 | 0.00 | 0.00 | 93 | 1013.8 |
| 20260508033045 | 55 | 0 | 0.0 | 0.0 | 0.00 | 0.00 | 0.00 | 93 | 1014.0 |
| 20260508031556 | 55 | 0 | 0.0 | 0.9 | 0.00 | 0.00 | 0.00 | 93 | 1013.9 |
| 20260508030052 | 55 | 0 | 0.0 | 0.0 | 0.00 | 0.00 | 0.00 | 93 | 1013.7 |
| 20260508024544 | 55 | 0 | 0.0 | 0.0 | 0.00 | 0.02 | 0.00 | 92 | 1013.5 |
| 20260508023050 | 55 | 0 | 0.0 | 0.0 | 0.00 | 0.02 | 0.00 | 93 | 1013.4 |
| 20260508021541 | 55 | 0 | 0.0 | 0.0 | 0.00 | 0.02 | 0.00 | 92 | 1013.1 |
| 20260508020048 | 56 | 0 | 0.0 | 0.0 | 0.00 | 0.02 | 0.00 | 92 | 1012.9 |
| 20260508014548 | 56 | 0 | 0.0 | 0.0 | 0.00 | 0.13 | 0.00 | 92 | 1012.7 |
| 20260508013042 | 56 | 0 | 0.0 | 0.0 | 0.00 | 0.13 | 0.00 | 92 | 1012.7 |
| 20260508011554 | 56 | 0 | 0.0 | 0.9 | 0.00 | 0.13 | 0.00 | 91 | 1012.2 |
| 20260508010046 | 57 | 0 | 0.0 | 0.9 | 0.00 | 0.13 | 0.00 | 91 | 1011.9 |
| 20260508004546 | 57 | 0 | 0.0 | 1.7 | 0.00 | 0.16 | 0.00 | 90 | 1011.5 |
| 20260508003044 | 57 | 0 | 0.0 | 3.5 | 0.00 | 0.16 | 0.00 | 89 | 1011.4 |
| 20260508001547 | 58 | 0 | 0.0 | 3.5 | 0.00 | 0.16 | 0.00 | 89 | 1010.9 |
| 20260508000053 | 58 | 0 | 0.0 | 0.9 | 0.00 | 0.16 | 0.00 | 88 | 1010.4 |
| 20260507234548 | 59 | 57 | 0.0 | 4.3 | 0.00 | 0.16 | 0.00 | 88 | 1010.4 |
| 20260507233044 | 59 | 0 | 0.9 | 5.2 | 0.00 | 0.16 | 0.00 | 88 | 1010.2 |
| 20260507231546 | 59 | 0 | 0.0 | 6.1 | 0.00 | 0.16 | 0.00 | 89 | 1009.9 |
| 20260507230051 | 59 | 0 | 0.0 | 2.6 | 0.00 | 0.16 | 0.00 | 89 | 1009.9 |
| 20260507224551 | 59 | 0 | 0.9 | 4.3 | 0.00 | 0.16 | 0.00 | 89 | 1009.7 |
| 20260507223048 | 59 | 352 | 0.0 | 8.7 | 0.00 | 0.16 | 0.00 | 89 | 1009.6 |
| 20260507221544 | 60 | 37 | 0.9 | 5.2 | 0.00 | 0.16 | 0.00 | 88 | 1009.6 |
| 20260507220042 | 61 | 62 | 0.0 | 10.4 | 0.00 | 0.16 | 0.00 | 87 | 1009.0 |
| 20260507214545 | 61 | 346 | 2.6 | 9.6 | 0.00 | 0.16 | 0.00 | 85 | 1008.7 |
| 20260507213048 | 63 | 20 | 0.0 | 9.6 | 0.00 | 0.16 | 0.00 | 85 | 1007.8 |
| 20260507211556 | 65 | 85 | 2.6 | 12.2 | 0.00 | 0.16 | 0.00 | 79 | 1007.7 |
| 20260507210049 | 67 | 30 | 2.6 | 10.4 | 0.00 | 0.16 | 0.00 | 78 | 1008.0 |
| 20260507204548 | 70 | 280 | 0.9 | 10.4 | 0.00 | 0.16 | 0.00 | 75 | 1007.7 |
| 20260507203043 | 77 | 0 | 0.0 | 3.5 | 0.00 | 0.16 | 0.00 | 67 | 1007.4 |
| 20260507201544 | 76 | 206 | 1.7 | 4.3 | 0.00 | 0.16 | 0.00 | 66 | 1007.0 |
| 20260507200045 | 77 | 147 | 1.7 | 7.0 | 0.00 | 0.16 | 0.00 | 62 | 1007.1 |
| 20260507194544 | 76 | 233 | 1.7 | 5.2 | 0.00 | 0.16 | 0.00 | 67 | 1007.5 |
| 20260507193053 | 75 | 194 | 1.7 | 7.0 | 0.00 | 0.16 | 0.00 | 73 | 1007.5 |
| 20260507191544 | 74 | 270 | 2.6 | 6.1 | 0.00 | 0.16 | 0.00 | 73 | 1007.7 |
| 20260507190047 | 74 | 140 | 2.6 | 6.1 | 0.00 | 0.16 | 0.00 | 74 | 1007.9 |
| 20260507184538 | 73 | 260 | 0.9 | 4.3 | 0.00 | 0.16 | 0.00 | 76 | 1007.9 |
| 20260507183049 | 73 | 146 | 1.7 | 5.2 | 0.00 | 0.16 | 0.00 | 76 | 1007.9 |
| 20260507181549 | 71 | 103 | 0.9 | 4.3 | 0.00 | 0.16 | 0.00 | 79 | 1008.3 |
| 20260507180044 | 72 | 248 | 0.9 | 5.2 | 0.00 | 0.16 | 0.00 | 83 | 1008.7 |
| 20260507174601 | 70 | 238 | 0.9 | 5.2 | 0.00 | 0.26 | 0.00 | 82 | 1008.9 |
| 20260507173048 | 70 | 0 | 0.0 | 1.7 | 0.00 | 0.26 | 0.00 | 88 | 1008.7 |
| 20260507171550 | 68 | 211 | 0.0 | 5.2 | 0.00 | 0.26 | 0.00 | 88 | 1009.0 |
| 20260507170134 | 68 | 0 | 0.9 | 4.3 | 0.00 | 0.26 | 0.00 | 89 | 1009.2 |
| 20260507164553 | 68 | 196 | 0.0 | 1.7 | 0.00 | 0.26 | 0.00 | 91 | 1009.0 |
| 20260507163052 | 68 | 221 | 0.0 | 0.9 | 0.00 | 0.26 | 0.00 | 91 | 1009.1 |
| 20260507161552 | 67 | 205 | 0.9 | 2.6 | 0.00 | 0.26 | 0.00 | 92 | 1009.8 |
| 20260507160110 | 67 | 0 | 0.0 | 0.9 | 0.00 | 0.26 | 0.00 | 93 | 1008.7 |
| 20260507154548 | 67 | 86 | 0.0 | 0.9 | 0.00 | 0.26 | 0.00 | 93 | 1008.6 |
| 20260507153047 | 66 | 0 | 0.0 | 0.9 | 0.00 | 0.26 | 0.00 | 94 | 1008.4 |
| 20260507151557 | 65 | 0 | 0.0 | 0.9 | 0.00 | 0.26 | 0.00 | 94 | 1009.1 |
| 20260507150043 | 65 | 0 | 0.0 | 2.6 | 0.00 | 0.26 | 0.00 | 94 | 1009.3 |
| 20260507144548 | 65 | 0 | 0.0 | 0.9 | 0.00 | 0.26 | 0.00 | 94 | 1010.1 |
| 20260507143049 | 65 | 229 | 0.9 | 3.5 | 0.00 | 0.26 | 0.00 | 94 | 1010.1 |
| 20260507141547 | 65 | 220 | 0.0 | 1.7 | 0.00 | 0.26 | 0.00 | 94 | 1009.8 |
| 20260507140048 | 65 | 223 | 0.0 | 0.0 | 0.00 | 0.26 | 0.00 | 95 | 1009.3 |
| 20260507134550 | 64 | 229 | 0.0 | 2.6 | 0.00 | 0.26 | 0.00 | 95 | 1009.3 |
| 20260507133056 | 64 | 134 | 0.0 | 0.9 | 0.00 | 0.26 | 0.00 | 95 | 1009.2 |
| 20260507131612 | 64 | 0 | 0.0 | 0.0 | 0.00 | 0.26 | 0.00 | 95 | 1009.4 |